Alyeska Resort
Hourly Weather - Base Weather Site
ALY_BASE_HR 4/19/2015
CLICK TO VIEW GRAPH!!

        DATE  TIME   Air  BATT   H2o   H2o   Rel
                    Temp  Volt  Inch Since  Hum%
                      F   AVG   1HR  0600   AVG

   4/19/2015 10:00    41 13.91  0.00  0.24    79
   4/19/2015 09:00    40 13.91  0.00  0.24    90
   4/19/2015 08:00    40 13.92  0.01  0.24    86
   4/19/2015 07:00    39 13.92  0.23  0.23    87
   4/19/2015 06:00    39 13.90  0.31  3.03    88
   4/19/2015 05:00    40 13.89  0.42  2.72    85
   4/19/2015 04:00    42 13.88  0.28  2.30    84
   4/19/2015 03:00    42 13.88  0.24  2.02    83
   4/19/2015 02:00    42 13.88  0.17  1.78    82
   4/19/2015 01:00    42 13.89  0.18  1.61    82
   4/18/2015 24:00    42 13.89  0.17  1.43    82
   4/18/2015 23:00    42 13.89  0.20  1.26    82
   4/18/2015 22:00    42 13.89  0.11  1.06    81
   4/18/2015 21:00    42 13.89  0.10  0.95    82
   4/18/2015 20:00    42 13.88  0.13  0.85    82
   4/18/2015 19:00    42 13.88  0.10  0.72    82
   4/18/2015 18:00    42 13.81  0.12  0.62    81
   4/18/2015 17:00    42 13.86  0.06  0.50    82
   4/18/2015 16:00    42 13.46  0.05  0.44    83
   4/18/2015 15:00    43 13.87  0.06  0.39    81
   4/18/2015 14:00    42 13.88  0.06  0.33    81
   4/18/2015 13:00    42 13.90  0.06  0.27    81
   4/18/2015 12:00    41 13.91  0.05  0.21    81
   4/18/2015 11:00    41 13.92  0.05  0.16    82


CLICK TO VIEW GRAPH!!